TimeICT,TemperatureF,Dew PointF,Humidity,Sea Level PressureIn,VisibilityMPH,Wind Direction,Wind SpeedMPH,Gust SpeedMPH,PrecipitationIn,Events,Conditions,WindDirDegrees,DateUTC
12:00 AM,80.6,64.4,58,29.77,5.6,SSW,9.2,-,N/A,,Unknown,200,2013-02-18 17:00:00
12:30 AM,80.6,66.2,61,29.77,5.6,SSW,10.4,-,N/A,,Unknown,200,2013-02-18 17:30:00
1:00 AM,80.6,66.2,61,29.77,5.6,SSW,9.2,-,N/A,,Unknown,200,2013-02-18 18:00:00
6:30 AM,75.2,66.2,73,29.80,6.2,SSW,3.5,-,N/A,,Partly Cloudy,210,2013-02-18 23:30:00
7:00 AM,74,68,77,29.84,6,Calm,Calm,,,,Partly Cloudy,,2013-02-19 00:00:00
7:00 AM,77.0,66.2,69,29.80,5.6,SW,4.6,-,N/A,,Unknown,230,2013-02-19 00:00:00
7:30 AM,80.6,64.4,58,29.80,5.6,SW,5.8,-,N/A,,Unknown,230,2013-02-19 00:30:00
8:00 AM,82.4,62.6,51,29.80,-9999.0,SW,5.8,-,N/A,,Clear,220,2013-02-19 01:00:00
8:30 AM,84.2,64.4,51,29.83,-9999.0,South,6.9,-,N/A,,Clear,180,2013-02-19 01:30:00
9:00 AM,86.0,62.6,45,29.83,-9999.0,SW,4.6,-,N/A,,Clear,230,2013-02-19 02:00:00
9:30 AM,86.0,64.4,48,29.83,-9999.0,SW,8.1,-,N/A,,Clear,220,2013-02-19 02:30:00
10:00 AM,87.8,64.4,46,29.83,-9999.0,SSE,8.1,-,N/A,,Clear,160,2013-02-19 03:00:00
10:30 AM,87.8,64.4,46,29.83,-9999.0,South,4.6,-,N/A,,Clear,180,2013-02-19 03:30:00
11:00 AM,89.6,62.6,40,29.83,-9999.0,SE,5.8,-,N/A,,Clear,130,2013-02-19 04:00:00
11:30 AM,89.6,62.6,40,29.80,-9999.0,SE,5.8,-,N/A,,Clear,140,2013-02-19 04:30:00
12:00 PM,91.4,62.6,38,29.80,6.2,South,3.5,-,N/A,,Partly Cloudy,180,2013-02-19 05:00:00
12:30 PM,91.4,62.6,38,29.77,6.2,SSE,6.9,-,N/A,,Partly Cloudy,150,2013-02-19 05:30:00
1:00 PM,93.2,60.8,34,29.77,6.2,WSW,5.8,-,N/A,,Partly Cloudy,240,2013-02-19 06:00:00
1:30 PM,93.2,59.0,32,29.74,6.2,West,2.3,-,N/A,,Partly Cloudy,270,2013-02-19 06:30:00
2:00 PM,95.0,59.0,30,29.71,6.2,NNW,4.6,-,N/A,,Partly Cloudy,330,2013-02-19 07:00:00
2:30 PM,96.8,59.0,28,29.71,6.2,NNE,5.8,-,N/A,,Partly Cloudy,30,2013-02-19 07:30:00
3:00 PM,95.0,59.0,30,29.68,6.2,NNW,10.4,-,N/A,,Partly Cloudy,330,2013-02-19 08:00:00
3:30 PM,95.0,53.6,25,29.68,6.2,NNE,13.8,-,N/A,,Partly Cloudy,30,2013-02-19 08:30:00
4:00 PM,95.0,53.6,25,29.68,6.2,NNW,6.9,-,N/A,,Partly Cloudy,330,2013-02-19 09:00:00
4:30 PM,95.0,53.6,25,29.68,6.2,ENE,8.1,-,N/A,,Partly Cloudy,60,2013-02-19 09:30:00
5:00 PM,95.0,53.6,25,29.68,6.2,SSE,2.3,-,N/A,,Partly Cloudy,150,2013-02-19 10:00:00
5:30 PM,95.0,53.6,25,29.68,-9999.0,NNE,4.6,-,N/A,,Clear,30,2013-02-19 10:30:00
6:00 PM,93.2,53.6,26,29.68,-9999.0,NNW,3.5,-,N/A,,Clear,330,2013-02-19 11:00:00
6:30 PM,91.4,55.4,29,29.71,6.2,WNW,3.5,-,N/A,,Partly Cloudy,300,2013-02-19 11:30:00
7:30 PM,91.4,57.2,31,29.71,5.6,WNW,3.5,-,N/A,,Partly Cloudy,300,2013-02-19 12:30:00
8:00 PM,89.6,59.0,36,29.71,5.6,Calm,Calm,-,N/A,,Partly Cloudy,0,2013-02-19 13:00:00
8:30 PM,87.8,60.8,40,29.74,5.6,South,6.9,-,N/A,,Partly Cloudy,180,2013-02-19 13:30:00
9:00 PM,86.0,62.6,45,29.74,5.6,South,8.1,-,N/A,,Partly Cloudy,180,2013-02-19 14:00:00
9:30 PM,86.0,66.2,51,29.77,5.6,South,8.1,-,N/A,,Partly Cloudy,190,2013-02-19 14:30:00
10:00 PM,84.2,68.0,58,29.77,5.6,South,8.1,-,N/A,,Partly Cloudy,190,2013-02-19 15:00:00
10:30 PM,82.4,69.8,66,29.77,5.6,SSW,6.9,-,N/A,,Partly Cloudy,200,2013-02-19 15:30:00
11:00 PM,82.4,69.8,66,29.80,5.6,South,9.2,-,N/A,,Partly Cloudy,180,2013-02-19 16:00:00
11:30 PM,80.6,69.8,70,29.80,5.6,South,9.2,-,N/A,,Partly Cloudy,180,2013-02-19 16:30:00